sat.trackr.live / text

‹ back to catalog

STARLINK-3054

NORAD 49167 · 2021-082AP

PAYLOAD ACTIVE UNKNOWN

§ Identity

Operator
Country
US
Launch date
2021-09-14
Launch site
AFWTR
Launch vehicle
Mass (kg)
RCS (m²)

Purposes: comms

External: N2YO · Heavens-Above · Gunter

§ Orbital elements

Epoch: 2026-09-09T22:06:49.493952Z

Period
96.11 min
Inclination
69.9995°
Eccentricity
0.0003042
Mean motion
14.98325418 rev/d
Perigee alt
570.0 km
Apogee alt
574.2 km
Semi-major
6,950.2 km
B*
5.6881e-5
RAAN
189.9334°
Arg perigee
269.8110°
Mean anomaly
90.2700°
Rev number
27,477

§ Raw data

STARLINK-30541 49167U 21082AP  26252.92140618  .00000586  00000+0  56881-4 0  99982 49167  69.9995 189.9334 0003042 269.8110  90.2700 14.98325418274779

JSON: /api/v1/satellites/49167 · /tle

For live sub-satellite position, see the globe view (requires WebGL).

§ Visibility from observer

Set your observer location to see the next 7 days of passes ≥ 10°. The values pass through the URL so the page stays shareable.

No JS? Fill the form by hand. The geolocation button needs JavaScript.